Regional Weather Roundup
Issued by NWS

Home | Current Version | Previous Version | Text Only | Print | Product List | Glossary Off
Versions: 1 2 3 4 5 6 7 8 9 10 11 12 13 14 15 16 17 18 19 20 21 22 23 24 25 26 27 28 29 30 31 32 33 34 35 36 37 38 39 40 41 42 43 44 45 46 47 48 49 50

000
ASUS43 KBIS 301910
RWRND

NORTH DAKOTA REGIONAL WEATHER ROUNDUP
NATIONAL WEATHER SERVICE BISMARCK ND
200 PM CDT WED JUL 30 2014

NOTE: "FAIR" INDICATES FEW OR NO CLOUDS BELOW 12,000 FEET WITH NO
SIGNIFICANT WEATHER AND/OR OBSTRUCTIONS TO VISIBILITY.


NDZ001>003-009>011-017-302000-
NORTHWEST NORTH DAKOTA

CITY           SKY/WX    TMP DP  RH WIND       PRES   REMARKS
WILLISTON      SUNNY     82  49  31 NE16      30.17F
MINOT          MOSUNNY   78  57  48 VRB6      30.14F
MINOT AFB      MOSUNNY   78  58  50 NW8       30.13F
$$

NDZ018>021-031>035-040>046-302000-
SOUTHWEST NORTH DAKOTA

CITY           SKY/WX    TMP DP  RH WIND       PRES   REMARKS
BISMARCK       MOSUNNY   81  55  40 N5        30.14F
DICKINSON      MOSUNNY   78  52  40 CALM      30.17S
GARRISON         N/A     75  59  57 CALM      30.15F
HETTINGER ARPT MOSUNNY   80  50  34 VRB5      30.18F
$$

NDZ004>008-012>016-024-026-027-054-302000-
NORTHEAST NORTH DAKOTA

CITY           SKY/WX    TMP DP  RH WIND       PRES   REMARKS
GRAND FORKS    MOSUNNY   80  57  45 N6        30.08F
GRND FRKS AFB  MOSUNNY   78  58  49 N5        30.09F
DEVILS LAKE    MOSUNNY   77  54  44 NW14      30.11F
$$

NDZ022-023-025-028>030-036>039-047>053-302000-
SOUTHEAST NORTH DAKOTA

CITY           SKY/WX    TMP DP  RH WIND       PRES   REMARKS
FARGO          MOSUNNY   80  54  40 N12       30.09F
JAMESTOWN      SUNNY     76  47  35 CALM      30.13F
$$




USA.gov is the U.S. government's official web portal to all federal, state and local government web resources and services.